Weather History for St. Thomas, VI

Change the Weather History Date:

Thursday, January 16, 2014

  Actual Average Record
Temperature  
Mean Temperature 78 °F 79 °F  
Max Temperature 83 °F 85 °F 91 °F (1984)
Min Temperature 72 °F 72 °F 65 °F (1980)
Degree Days  
Heating Degree Days 0 0  
Month to date heating degree days 0 0  
Since 1 July heating degree days 0 0  
Cooling Degree Days 13 14  
Month to date cooling degree days 221 224  
Year to date cooling degree days 221 224  
Growing Degree Days 27 (Base 50)    
Moisture  
Dew Point 68 °F    
Average Humidity 78    
Maximum Humidity 93    
Minimum Humidity 63    
Precipitation  
Precipitation T in 0.08 in 0.83 in (2006)
Month to date precipitation 0.39 1.35  
Year to date precipitation 0.39 1.35  
Sea Level Pressure  
Sea Level Pressure 30.02 in    
Wind  
Wind Speed 11 mph (ESE)    
Max Wind Speed 21 mph    
Max Gust Speed 28 mph    
Visibility 10 miles    
Events      
T = Trace of Precipitation, MM = Missing Value Source: NWS Daily Summary

Daily Weather History Graph

Daily Weather History Graph

Search for Another Location

Airport:

Trip Planner

Search our weather history database for the weather conditions in past years. The results will help you decide how hot, cold, wet, or windy it might be!

Date:

Astronomy

Jan. 16, 2014 Rise Set
Actual Time 6:54 AM AST 6:04 PM AST
Civil Twilight 6:31 AM AST 6:27 PM AST
Nautical Twilight 6:04 AM AST 6:54 PM AST
Astronomical Twilight 5:38 AM AST 7:21 PM AST
Moon 6:39 PM AST (1/16) 6:57 AM AST (1/16)
Length of Visible Light 11h 56m
Length of Day
11h 09m
Full, 100% of the Moon is Illuminated
Jan 16
Full
Jan 24
Last Quarter
Jan 30
New
Feb 6
First Quarter
Feb 14
Full

Hourly Weather History & Observations

Time (AST) Temp. Heat Index Dew Point Humidity Pressure Visibility Wind Dir Wind Speed Gust Speed Precip Events Conditions
12:53 AM 73.0 °F - 68.0 °F 84% 30.02 in 10.0 mi East 10.4 mph - N/A   Mostly Cloudy
1:53 AM 73.9 °F - 68.0 °F 82% 30.01 in 10.0 mi East 9.2 mph - N/A   Partly Cloudy
2:53 AM 73.9 °F - 68.0 °F 82% 30.00 in 10.0 mi East 6.9 mph - N/A   Clear
3:53 AM 73.0 °F - 68.0 °F 84% 29.99 in 10.0 mi East 5.8 mph - N/A   Clear
4:53 AM 73.9 °F - 69.1 °F 85% 29.99 in 10.0 mi East 8.1 mph - 0.00 in   Mostly Cloudy
5:53 AM 75.0 °F - 68.0 °F 79% 30.00 in 10.0 mi East 9.2 mph - N/A   Partly Cloudy
6:53 AM 73.9 °F - 66.9 °F 79% 30.01 in 10.0 mi East 8.1 mph - N/A   Clear
7:53 AM 77.0 °F - 68.0 °F 74% 30.04 in 10.0 mi ESE 13.8 mph - N/A   Partly Cloudy
8:53 AM 79.0 °F - 68.0 °F 69% 30.06 in 10.0 mi SE 19.6 mph 27.6 mph N/A   Mostly Cloudy
9:53 AM 80.1 °F 82.7 °F 68.0 °F 67% 30.07 in 10.0 mi SE 12.7 mph - N/A   Clear
10:53 AM 82.0 °F 84.9 °F 68.0 °F 62% 30.07 in 10.0 mi SE 13.8 mph - N/A   Partly Cloudy
11:53 AM 82.0 °F 85.5 °F 69.1 °F 65% 30.05 in 10.0 mi SE 13.8 mph - N/A   Partly Cloudy
12:53 PM 82.0 °F 85.5 °F 69.1 °F 65% 30.01 in 10.0 mi SE 17.3 mph 24.2 mph N/A   Partly Cloudy
1:53 PM 82.0 °F 85.9 °F 70.0 °F 67% 29.99 in 10.0 mi SE 16.1 mph 23.0 mph N/A   Partly Cloudy
2:53 PM 82.0 °F 84.9 °F 68.0 °F 62% 29.99 in 10.0 mi SE 11.5 mph - N/A   Clear
3:53 PM 81.0 °F 84.1 °F 69.1 °F 67% 29.98 in 10.0 mi SE 13.8 mph - N/A   Partly Cloudy
4:53 PM 80.1 °F 82.9 °F 69.1 °F 69% 29.99 in 10.0 mi SE 15.0 mph - N/A   Partly Cloudy
5:53 PM 79.0 °F - 68.0 °F 69% 30.00 in 10.0 mi ESE 10.4 mph 17.3 mph N/A   Partly Cloudy
6:53 PM 77.0 °F - 68.0 °F 74% 30.01 in 10.0 mi East 6.9 mph - N/A   Clear
7:53 PM 75.9 °F - 68.0 °F 76% 30.02 in 10.0 mi East 6.9 mph - N/A   Clear
8:53 PM 75.9 °F - 69.1 °F 79% 30.04 in 10.0 mi East 5.8 mph - N/A   Partly Cloudy
9:53 PM 75.9 °F - 66.9 °F 74% 30.06 in 10.0 mi East 6.9 mph - N/A   Partly Cloudy
10:53 PM 75.0 °F - 66.9 °F 76% 30.06 in 10.0 mi East 5.8 mph - N/A   Clear
11:53 PM 73.9 °F - 68.0 °F 82% 30.06 in 10.0 mi East 4.6 mph - N/A   Clear